Theta_e
341 338 334 330 328 326 324 321 319 317 317 317 317 318 319 320 321 321 321 320 319 320 319 318 315 312 309 308 311 313 314 314 314 316 314 312 311 311 311 312 312 312 312
337 333 330 327 325 323 320 317 317 317 317 318 319 319 319 320 321 320 319 319 319 319 318 317 314 310 309 305 305 309 311 314 315 314 313 312 311 311 311 312 312 313 312
332 329 327 325 323 319 318 317 317 317 318 319 320 319 319 320 319 319 319 319 319 318 318 316 311 309 306 302 304 309 311 313 314 312 312 311 311 311 312 312 313 313 313
329 326 325 322 320 318 317 317 318 319 319 319 319 320 320 320 320 320 320 320 318 317 313 311 307 305 301 304 306 310 311 311 312 312 312 312 311 311 312 312 312 313 314
326 323 322 320 319 318 318 318 319 319 319 319 319 319 319 320 319 320 319 318 317 315 309 310 307 301 300 305 311 312 314 313 312 312 311 312 312 312 312 312 312 313 313
323 322 320 319 319 318 318 318 319 319 318 318 317 316 317 318 319 319 318 317 316 315 310 307 305 297 299 306 311 311 313 313 312 312 311 311 311 313 312 312 312 312 312
322 320 320 319 318 317 317 318 319 319 317 316 314 311 314 315 316 318 318 317 315 314 310 304 299 297 299 306 307 309 311 312 309 309 309 310 311 313 312 312 312 312 311
320 320 319 318 317 318 319 319 319 318 317 316 313 309 309 310 313 315 317 317 316 311 304 301 297 298 299 302 304 305 305 306 308 309 310 311 313 312 313 313 311 311 310
320 320 319 317 318 319 318 317 317 316 316 315 313 309 308 308 311 310 315 315 312 304 302 300 299 300 300 300 301 302 304 305 307 311 310 309 309 309 311 312 311 310 309
319 319 318 318 318 318 317 316 315 315 315 315 313 307 305 305 307 308 309 309 310 303 300 299 300 301 301 301 301 302 303 304 305 304 304 304 304 305 310 309 310 311 310
319 318 318 317 317 318 317 316 315 315 315 314 312 305 304 304 303 303 304 306 304 302 300 300 300 301 301 301 302 302 302 303 303 303 303 303 303 303 309 306 307 311 309
318 318 317 317 318 317 317 317 317 315 315 314 312 307 303 302 302 300 300 302 303 301 301 300 300 301 302 301 300 301 301 302 302 302 302 302 303 302 306 307 305 306 307
318 317 317 318 317 316 316 315 314 314 314 313 309 305 302 301 301 300 299 300 300 300 302 301 302 302 302 302 299 300 300 301 302 302 301 302 302 301 303 300 300 303 305
317 317 317 316 315 316 314 314 314 314 315 315 315 308 301 300 300 300 298 299 299 301 301 301 301 301 301 301 300 298 299 300 301 301 300 300 301 301 301 300 299 299 301
316 316 314 315 314 313 312 312 312 312 315 313 310 306 302 298 296 296 297 298 299 300 300 299 299 300 299 299 300 298 298 299 299 300 299 299 300 300 300 300 299 298 298
315 312 311 308 307 308 305 302 304 307 308 307 307 307 301 297 295 296 297 298 299 299 298 298 297 298 298 298 298 298 297 297 298 298 298 297 298 299 299 299 299 297 297
314 311 308 306 304 302 302 302 298 299 302 302 302 301 298 295 296 297 297 297 297 297 297 296 296 296 296 296 297 297 296 296 297 297 297 297 296 298 298 299 298 297 296
314 311 310 307 306 304 303 302 301 300 298 296 297 297 295 296 297 298 298 297 296 296 295 295 295 294 295 294 295 295 294 295 295 296 295 296 295 296 297 297 296 297 295
313 311 310 308 307 305 303 303 302 300 298 296 295 295 296 297 297 297 296 296 295 295 294 294 294 293 293 292 292 292 292 292 293 294 294 295 293 294 296 295 296 296 294
313 312 311 310 309 307 307 306 302 300 298 297 297 298 299 298 297 296 295 295 295 294 294 293 293 292 291 290 289 289 289 290 292 293 293 293 292 293 294 293 294 295 293
314 313 313 312 310 309 308 307 304 302 301 300 300 300 301 299 296 295 294 294 294 293 293 292 291 291 290 289 287 286 287 289 291 291 292 293 291 292 293 292 293 293 292
313 312 311 312 310 309 307 307 306 305 302 301 300 300 299 297 295 294 294 293 293 292 292 291 290 289 288 287 285 285 287 288 289 290 291 292 291 291 291 291 292 292 291
311 311 311 312 311 309 307 306 306 305 303 303 301 300 299 296 295 294 293 293 292 292 291 291 289 288 287 285 284 285 287 287 288 289 290 290 290 289 290 290 291 290 290
311 310 311 310 310 309 307 306 306 305 303 300 300 300 299 295 294 293 293 292 292 291 291 290 289 286 284 284 284 285 287 288 289 290 289 288 289 288 289 289 290 290 289
309 310 309 309 309 308 307 306 305 305 302 301 301 300 299 296 294 293 293 292 291 291 290 289 288 287 283 283 284 285 287 288 289 289 288 288 288 288 288 288 289 289 289
309 310 309 308 308 308 307 306 305 304 304 302 301 300 297 296 294 293 292 292 291 290 289 288 287 285 283 283 283 284 286 288 288 288 288 287 287 288 288 288 288 289 288
Wind_Speed
34 35 34 34 33 32 28 28 26 23 21 19 18 17 19 21 19 18 17 16 17 16 14 13 13 14 16 17 15 14 17 18 8 17 22 30 31 32 36 34 36 36 36
41 38 37 33 30 29 27 26 26 24 21 20 19 18 19 19 20 18 17 15 14 14 11 11 12 15 18 18 16 15 15 17 16 10 17 28 31 32 32 33 34 38 35
36 33 36 31 28 30 28 26 26 24 21 21 20 20 19 18 18 17 16 15 15 14 13 11 13 17 19 19 15 15 15 15 16 17 16 24 26 29 34 28 32 35 34
37 33 38 33 31 30 28 27 25 24 24 22 21 20 19 19 19 17 16 16 16 13 14 12 15 19 19 17 14 14 15 15 13 13 16 20 22 28 25 27 31 32 30
35 34 36 35 32 31 28 27 26 24 23 22 21 20 19 19 18 17 17 15 13 12 15 9 14 18 17 15 14 17 16 13 10 12 16 13 17 22 21 23 25 27 25
33 35 37 36 34 31 29 27 25 24 22 19 14 13 17 17 16 16 14 13 11 11 12 12 13 19 19 13 11 14 16 13 13 11 12 14 19 23 23 23 21 21 10
34 32 31 35 35 32 29 27 24 25 25 21 16 17 17 16 13 13 12 11 10 9 10 14 17 18 19 16 14 12 13 10 16 13 16 20 18 23 22 23 26 20 18
34 31 31 33 34 31 28 27 26 26 24 19 16 16 16 16 11 10 10 10 11 10 13 17 18 19 20 20 19 20 19 20 20 15 13 17 14 17 16 17 24 18 21
34 32 31 33 35 33 30 28 25 23 20 18 16 14 14 15 11 11 12 13 14 15 15 18 16 18 19 19 21 24 24 26 25 17 16 19 20 18 17 18 24 19 15
35 32 32 31 36 34 31 29 25 24 22 19 17 14 15 16 11 11 13 17 15 13 15 15 15 15 17 18 20 21 24 23 23 22 21 21 21 21 13 18 20 16 14
36 34 33 36 35 34 32 28 28 26 23 20 18 17 18 16 16 15 14 16 17 12 13 14 13 12 13 15 18 20 23 22 22 23 24 26 24 24 15 23 21 16 19
38 35 37 36 34 32 30 25 26 27 24 21 19 18 17 16 14 16 16 14 12 10 10 9 10 11 12 14 19 19 21 21 22 24 27 30 27 30 21 18 23 20 16
37 37 35 33 33 30 28 27 26 24 23 23 22 21 16 13 12 11 12 12 10 11 8 10 14 14 16 16 20 19 22 24 24 26 27 28 26 28 21 27 24 18 17
35 32 34 36 32 28 25 24 23 22 22 20 20 24 16 11 10 8 10 10 11 13 16 16 16 17 18 19 20 22 23 25 25 25 26 26 25 28 29 25 31 28 26
32 33 30 33 29 27 26 23 19 19 20 27 31 26 18 14 14 13 14 14 13 16 17 17 19 19 20 20 19 21 22 25 26 25 26 27 28 27 26 25 28 30 27
31 27 31 33 32 32 32 29 25 22 20 22 22 18 16 16 16 15 14 15 16 17 19 19 19 19 18 19 19 19 21 23 24 25 25 27 28 28 27 27 23 31 26
27 31 29 29 32 32 32 31 30 24 21 19 16 15 14 18 16 15 17 15 16 15 20 19 18 19 18 19 19 18 20 21 22 25 26 26 28 27 27 26 26 26 25
31 31 30 30 30 27 26 27 27 26 23 19 15 15 17 18 15 11 13 17 18 17 18 18 17 16 17 18 19 20 19 18 21 24 26 26 27 29 27 27 29 25 27
32 30 28 28 28 27 26 27 24 22 22 22 20 19 19 17 17 18 16 18 19 17 17 17 16 14 16 17 17 17 16 16 18 22 25 24 25 28 26 28 26 23 29
25 29 28 29 30 27 26 27 26 23 23 22 20 18 16 16 19 18 16 15 16 17 17 17 16 16 15 14 14 14 14 16 17 21 24 22 25 27 25 27 25 25 29
19 25 23 29 31 28 30 29 28 24 26 19 16 12 9 18 21 17 16 16 15 16 17 17 16 13 12 13 14 15 15 14 16 20 23 21 24 26 24 26 24 25 28
25 23 25 23 30 26 27 30 27 23 26 25 21 16 20 22 20 19 17 15 15 14 15 13 14 13 12 13 15 16 17 16 17 19 20 21 23 24 23 26 25 25 28
20 21 23 15 27 30 30 28 29 27 22 18 18 19 17 22 21 18 17 16 15 13 10 8 10 9 11 11 13 14 16 17 19 18 18 21 21 22 24 25 25 26 27
19 8 22 24 29 28 29 29 29 26 23 18 23 17 18 23 21 19 18 17 16 14 10 10 11 12 10 12 12 12 13 15 17 17 17 17 18 20 22 22 23 22 25
12 8 22 21 18 23 30 30 30 27 25 22 21 22 21 21 20 18 17 16 16 15 13 11 9 10 12 12 12 11 11 13 16 15 15 17 14 17 19 20 21 20 22
8 2 20 19 13 24 27 28 30 26 22 28 24 23 25 23 20 19 17 17 16 14 12 8 6 8 10 11 11 10 9 11 14 15 15 14 16 15 18 18 19 21 21
Wind_Direction
135 135 134 135 138 137 135 134 136 132 131 132 133 132 133 121 118 112 106 100 91 85 77 64 54 40 35 29 30 30 24 19 3 352 12 10 16 8 4 360 359 356 357
135 137 136 137 135 135 137 135 132 131 135 138 136 130 124 114 110 115 108 101 95 82 72 60 54 33 33 25 20 27 24 24 13 358 12 9 9 6 358 357 350 355 352
125 125 130 132 141 137 138 140 133 135 137 138 137 127 122 118 115 113 109 100 87 75 70 70 45 28 22 15 24 32 27 19 17 16 2 6 4 3 356 356 359 353 357
125 130 128 142 145 140 143 137 135 139 137 136 134 134 131 126 121 117 105 104 95 84 67 59 41 27 14 15 32 32 12 2 1 9 7 4 1 2 352 355 355 352 349
129 129 134 146 144 142 142 137 138 139 135 134 131 128 127 126 116 114 101 101 93 77 71 58 26 18 18 25 36 24 21 11 16 2 350 346 347 346 352 351 356 350 357
134 131 143 146 144 145 140 138 140 138 135 134 132 138 139 127 117 115 110 100 91 76 67 58 17 15 22 39 41 41 33 37 18 355 341 336 331 346 348 348 350 354 357
133 141 148 145 143 140 138 139 138 136 134 124 123 127 132 131 128 128 117 111 105 88 63 41 28 23 25 33 35 44 42 30 7 358 341 336 326 349 345 352 355 353 347
142 149 142 143 141 142 140 137 136 128 124 121 119 123 127 123 127 128 119 101 121 104 68 44 33 34 33 34 38 39 36 25 19 13 11 17 7 11 359 0 3 360 7
144 147 151 146 144 143 141 137 139 131 129 122 119 126 120 112 112 92 119 106 119 93 62 39 43 45 38 37 35 32 32 32 32 37 33 25 17 15 2 8 14 9 2
148 148 145 147 146 143 145 141 143 140 134 133 122 120 110 104 108 101 107 93 112 89 58 49 48 44 41 35 33 33 30 26 29 30 29 27 20 16 33 25 19 20 11
141 141 145 149 148 146 144 146 146 140 138 134 129 121 104 97 92 91 93 99 95 100 63 58 49 34 36 44 44 36 30 32 37 33 28 25 26 25 47 32 28 32 23
137 139 145 146 147 146 142 150 153 141 141 144 144 129 111 98 89 84 84 91 91 85 72 47 33 35 41 59 50 44 43 43 40 35 29 21 21 19 34 28 28 25 28
134 139 141 140 143 143 141 142 139 147 157 157 148 134 121 111 103 100 97 83 90 74 69 58 53 63 62 66 48 46 43 39 35 33 27 21 21 21 33 31 24 14 3
136 138 137 138 143 147 144 146 153 166 165 175 161 147 140 115 106 103 93 104 88 77 87 74 67 68 63 59 50 43 41 38 34 32 29 25 27 24 23 28 22 22 17
136 135 133 140 144 139 131 134 137 131 156 145 147 150 140 112 100 101 96 86 79 85 85 79 68 62 57 51 48 42 38 38 34 33 29 27 25 24 23 22 24 21 16
134 124 135 134 136 137 128 109 106 118 123 123 138 144 123 114 108 105 92 81 91 95 86 78 67 61 56 46 41 46 38 37 34 32 31 27 23 19 18 21 28 21 14
137 137 137 139 137 135 133 129 116 111 113 113 116 118 118 121 122 111 104 95 96 92 84 77 66 58 54 43 39 43 41 37 40 34 30 25 23 22 20 23 23 27 14
143 145 142 146 144 141 143 143 137 132 125 117 116 119 124 119 107 102 114 108 97 91 87 80 72 60 52 43 44 48 46 37 37 34 27 24 22 21 20 22 23 28 18
148 149 153 152 147 147 148 143 137 137 133 128 126 125 124 116 100 97 103 102 94 98 93 82 75 64 55 54 52 48 42 37 37 32 26 26 22 22 23 23 23 33 21
154 157 161 160 156 153 148 142 141 138 139 137 138 138 135 120 113 103 100 102 98 81 100 88 80 73 60 49 42 35 38 39 41 34 28 29 23 25 24 22 26 27 22
158 158 161 143 149 145 145 141 144 143 148 155 160 154 158 132 122 117 108 103 101 86 94 92 81 70 54 43 41 39 41 43 45 36 29 35 25 24 27 24 28 29 24
158 157 160 152 158 146 150 150 148 146 141 140 145 129 121 126 122 121 119 112 107 98 97 98 84 69 54 48 47 47 46 44 37 36 33 33 27 27 30 25 27 32 28
152 162 173 170 153 149 148 150 148 143 143 147 151 135 122 128 132 129 123 118 116 109 102 85 84 82 62 55 51 53 50 42 33 32 34 34 32 28 31 28 34 35 31
169 155 160 146 143 145 146 150 153 152 149 144 150 140 135 137 134 129 129 125 114 111 101 86 74 74 71 69 64 60 54 43 35 41 41 34 39 33 34 30 34 37 29
169 146 147 149 150 144 152 154 154 156 156 155 155 146 147 139 133 134 137 133 131 125 107 93 67 60 61 60 61 62 57 48 45 51 45 33 42 38 37 31 28 33 37
140 194 155 162 163 151 155 152 158 161 161 153 152 154 148 144 141 142 139 140 138 128 127 113 74 61 64 60 58 61 64 56 56 50 46 35 37 49 39 35 31 39 42